• în Republica Moldova
  • Lista ţărilor
  • Pe 7 zile
  • Temperatura apei
  • Hartă satelitară
  • Meteo pe hartă
  • Widget-uri
  • user-avatar
    Intrare

    Meteo pe oră la Townsville

    Astăzi, 28 Iunie, Miercuri

    Timp Temperatura Precipitaţii Vânt Presiune Umiditate
    00:00 +20°C° 0,1 mm 5 m/s 757 mmHg 96%
    01:00 +20°C° 0,1 mm 5 m/s 757 mmHg 95%
    02:00 +20°C° 0,1 mm 5 m/s 757 mmHg 96%
    03:00 +20°C° 0,1 mm 4 m/s 757 mmHg 96%
    04:00 +20°C° 0 mm 4 m/s 756 mmHg 96%
    05:00 +20°C° 0,1 mm 4 m/s 757 mmHg 96%
    06:00 +20°C° 0,1 mm 4 m/s 757 mmHg 96%
    07:00 +20°C° 0,1 mm 4 m/s 757 mmHg 96%
    08:00 +21°C° 0,1 mm 4 m/s 757 mmHg 92%
    09:00 +22°C° 0,1 mm 4 m/s 757 mmHg 89%
    10:00 +23°C° 0,1 mm 4 m/s 757 mmHg 85%
    11:00 +25°C° 0,2 mm 4 m/s 757 mmHg 81%
    12:00 +26°C° 0,2 mm 5 m/s 757 mmHg 76%
    13:00 +26°C° 0,2 mm 5 m/s 757 mmHg 72%
    14:00 +26°C° 0,2 mm 5 m/s 757 mmHg 73%
    15:00 +26°C° 0,2 mm 5 m/s 756 mmHg 74%
    16:00 +26°C° 0,2 mm 5 m/s 756 mmHg 75%
    17:00 +23°C° 0,2 mm 5 m/s 756 mmHg 82%
    18:00 +22°C° 0,2 mm 5 m/s 756 mmHg 89%
    19:00 +21°C° 0,2 mm 4 m/s 757 mmHg 96%
    20:00 +20°C° 0,2 mm 4 m/s 757 mmHg 97%
    21:00 +20°C° 0,2 mm 4 m/s 757 mmHg 97%
    22:00 +20°C° 0,2 mm 5 m/s 757 mmHg 98%
    23:00 +20°C° 0,1 mm 4 m/s 757 mmHg 97%

    Mâine, 29 Iunie, Joi

    Timp Temperatura Precipitaţii Vânt Presiune Umiditate
    00:00 +20°C° 0,1 mm 4 m/s 757 mmHg 97%
    01:00 +20°C° 0,1 mm 4 m/s 757 mmHg 97%
    02:00 +20°C° 0,1 mm 4 m/s 757 mmHg 97%
    03:00 +20°C° 0,1 mm 4 m/s 756 mmHg 97%
    04:00 +20°C° 0,1 mm 4 m/s 756 mmHg 97%
    05:00 +20°C° 0,1 mm 4 m/s 756 mmHg 97%
    06:00 +20°C° 0,1 mm 4 m/s 757 mmHg 97%
    07:00 +20°C° 0,1 mm 4 m/s 757 mmHg 97%
    08:00 +21°C° 0,1 mm 4 m/s 757 mmHg 91%
    09:00 +22°C° 0,1 mm 4 m/s 757 mmHg 86%
    10:00 +25°C° 0,1 mm 4 m/s 758 mmHg 80%
    11:00 +25°C° 0,1 mm 4 m/s 757 mmHg 76%
    12:00 +26°C° 0,1 mm 4 m/s 757 mmHg 73%
    13:00 +27°C° 0,1 mm 4 m/s 756 mmHg 69%
    14:00 +26°C° 0 mm 4 m/s 756 mmHg 72%
    15:00 +26°C° 0 mm 4 m/s 755 mmHg 74%
    16:00 +25°C° 0 mm 3 m/s 755 mmHg 76%
    17:00 +25°C° 0 mm 3 m/s 755 mmHg 81%
    18:00 +24°C° 0 mm 3 m/s 756 mmHg 86%
    19:00 +22°C° 0 mm 3 m/s 756 mmHg 91%
    20:00 +21°C° 0 mm 3 m/s 756 mmHg 93%
    21:00 +21°C° 0 mm 3 m/s 757 mmHg 94%
    22:00 +21°C° 0 mm 3 m/s 757 mmHg 96%
    23:00 +21°C° 0 mm 3 m/s 757 mmHg 96%

    Poimâine, 30 Iunie, Vineri

    Timp Temperatura Precipitaţii Vânt Presiune Umiditate
    00:00 +20°C° 0 mm 3 m/s 757 mmHg 97%
    01:00 +20°C° 0 mm 3 m/s 756 mmHg 97%
    02:00 +20°C° 0,1 mm 3 m/s 756 mmHg 98%
    03:00 +19°C° 0,1 mm 3 m/s 756 mmHg 98%
    04:00 +19°C° 0,1 mm 3 m/s 756 mmHg 98%
    05:00 +19°C° 0,1 mm 3 m/s 756 mmHg 98%
    06:00 +19°C° 0,1 mm 4 m/s 756 mmHg 98%
    07:00 +19°C° 0,1 mm 4 m/s 756 mmHg 98%
    08:00 +21°C° 0 mm 4 m/s 757 mmHg 88%
    09:00 +23°C° 0 mm 4 m/s 757 mmHg 78%
    10:00 +26°C° 0 mm 4 m/s 757 mmHg 68%
    11:00 +27°C° 0 mm 4 m/s 757 mmHg 65%
    12:00 +27°C° 0 mm 4 m/s 756 mmHg 62%
    13:00 +28°C° 0 mm 4 m/s 756 mmHg 58%
    14:00 +28°C° 0 mm 4 m/s 756 mmHg 61%
    15:00 +27°C° 0 mm 4 m/s 755 mmHg 63%
    16:00 +27°C° 0 mm 4 m/s 755 mmHg 66%
    17:00 +25°C° 0,2 mm 4 m/s 756 mmHg 75%
    18:00 +22°C° 0,2 mm 4 m/s 756 mmHg 85%
    19:00 +21°C° 0,2 mm 4 m/s 757 mmHg 94%
    20:00 +21°C° 0,1 mm 4 m/s 757 mmHg 94%
    21:00 +21°C° 0,1 mm 4 m/s 758 mmHg 94%
    22:00 +21°C° 0,1 mm 5 m/s 758 mmHg 94%
    23:00 +20°C° 0 mm 5 m/s 758 mmHg 95%

    1 Iulie, Sâmbătă

    Timp Temperatura Precipitaţii Vânt Presiune Umiditate
    00:00 +20°C° 0 mm 5 m/s 757 mmHg 96%
    01:00 +19°C° 0 mm 5 m/s 757 mmHg 97%
    02:00 +19°C° 0 mm 5 m/s 757 mmHg 97%
    03:00 +19°C° 0 mm 5 m/s 757 mmHg 97%
    04:00 +17°C° 0 mm 5 m/s 757 mmHg 97%
    05:00 +17°C° 0 mm 5 m/s 757 mmHg 97%
    06:00 +17°C° 0 mm 5 m/s 757 mmHg 96%
    07:00 +17°C° 0 mm 5 m/s 758 mmHg 96%
    08:00 +19°C° 0 mm 5 m/s 758 mmHg 91%
    09:00 +20°C° 0 mm 6 m/s 759 mmHg 86%
    10:00 +21°C° 0 mm 6 m/s 759 mmHg 82%
    11:00 +22°C° 0 mm 6 m/s 758 mmHg 79%
    12:00 +23°C° 0 mm 6 m/s 758 mmHg 77%
    13:00 +23°C° 0 mm 6 m/s 757 mmHg 74%
    14:00 +24°C° 0 mm 6 m/s 757 mmHg 74%
    15:00 +24°C° 0 mm 6 m/s 757 mmHg 73%
    16:00 +24°C° 0 mm 6 m/s 756 mmHg 73%
    17:00 +23°C° 0 mm 6 m/s 757 mmHg 76%
    18:00 +22°C° 0 mm 6 m/s 757 mmHg 80%
    19:00 +22°C° 0 mm 6 m/s 757 mmHg 84%
    20:00 +21°C° 0,1 mm 6 m/s 758 mmHg 86%
    21:00 +21°C° 0,1 mm 6 m/s 758 mmHg 88%
    22:00 +20°C° 0,1 mm 6 m/s 758 mmHg 90%
    23:00 +21°C° 0,2 mm 6 m/s 758 mmHg 90%

    2 Iulie, Duminică

    Timp Temperatura Precipitaţii Vânt Presiune Umiditate
    00:00 +21°C° 0,2 mm 6 m/s 758 mmHg 91%
    01:00 +21°C° 0,2 mm 6 m/s 757 mmHg 91%
    02:00 +21°C° 0,3 mm 6 m/s 757 mmHg 91%
    03:00 +21°C° 0,3 mm 6 m/s 757 mmHg 91%
    04:00 +21°C° 0,3 mm 6 m/s 757 mmHg 92%
    05:00 +21°C° 0,2 mm 6 m/s 757 mmHg 92%
    06:00 +21°C° 0,2 mm 5 m/s 758 mmHg 93%
    07:00 +21°C° 0,2 mm 5 m/s 758 mmHg 93%
    08:00 +21°C° 0,2 mm 5 m/s 758 mmHg 92%
    09:00 +22°C° 0,2 mm 5 m/s 758 mmHg 90%
    10:00 +22°C° 0,2 mm 6 m/s 759 mmHg 89%
    11:00 +23°C° 0,2 mm 6 m/s 758 mmHg 87%
    12:00 +23°C° 0,2 mm 6 m/s 758 mmHg 84%
    13:00 +24°C° 0,2 mm 6 m/s 757 mmHg 82%
    14:00 +24°C° 0,2 mm 6 m/s 757 mmHg 83%
    15:00 +23°C° 0,2 mm 6 m/s 757 mmHg 84%
    16:00 +23°C° 0,2 mm 6 m/s 757 mmHg 85%
    17:00 +23°C° 0,1 mm 6 m/s 757 mmHg 87%
    18:00 +22°C° 0,1 mm 6 m/s 757 mmHg 90%
    19:00 +21°C° 0,1 mm 6 m/s 758 mmHg 93%
    20:00 +21°C° 0,1 mm 6 m/s 758 mmHg 93%
    21:00 +21°C° 0,1 mm 6 m/s 758 mmHg 93%
    22:00 +21°C° 0,1 mm 6 m/s 759 mmHg 94%
    23:00 +21°C° 0,2 mm 6 m/s 758 mmHg 94%

    3 Iulie, Luni

    Timp Temperatura Precipitaţii Vânt Presiune Umiditate
    00:00 +20°C° 0,2 mm 5 m/s 758 mmHg 95%
    01:00 +20°C° 0,2 mm 5 m/s 758 mmHg 95%
    02:00 +20°C° 0,2 mm 5 m/s 757 mmHg 95%
    03:00 +20°C° 0,2 mm 5 m/s 757 mmHg 95%
    04:00 +20°C° 0,2 mm 5 m/s 757 mmHg 95%
    05:00 +20°C° 0,2 mm 5 m/s 757 mmHg 95%
    06:00 +20°C° 0,2 mm 5 m/s 758 mmHg 96%
    07:00 +20°C° 0,2 mm 5 m/s 758 mmHg 96%
    08:00 +21°C° 0,1 mm 5 m/s 758 mmHg 93%
    09:00 +22°C° 0,1 mm 6 m/s 758 mmHg 90%
    10:00 +22°C° 0,1 mm 6 m/s 758 mmHg 87%
    11:00 +23°C° 0,1 mm 6 m/s 758 mmHg 84%
    12:00 +24°C° 0,1 mm 6 m/s 757 mmHg 80%
    13:00 +24°C° 0,1 mm 6 m/s 757 mmHg 77%
    14:00 +24°C° 0 mm 6 m/s 757 mmHg 77%
    15:00 +25°C° 0 mm 5 m/s 757 mmHg 78%
    16:00 +25°C° 0 mm 5 m/s 756 mmHg 78%
    17:00 +22°C° 0 mm 5 m/s 757 mmHg 83%
    18:00 +21°C° 0 mm 4 m/s 757 mmHg 89%
    19:00 +20°C° 0 mm 4 m/s 758 mmHg 94%
    20:00 +20°C° 0 mm 4 m/s 758 mmHg 95%
    21:00 +20°C° 0 mm 4 m/s 758 mmHg 96%
    22:00 +20°C° 0 mm 4 m/s 758 mmHg 97%
    23:00 +19°C° 0 mm 4 m/s 758 mmHg 97%
    Arată mai mult